Skip Page Navigation
NASA JPL Caltech
NASA Logo - Jet Propulsion Laboratory + View the NASA Portal
+ Near-Earth Object (NEO) Program
Search JPL
JPL Home Earth Solar System Stars & Galaxies Technology
JPL Solar System Dynamics
BODIES ORBITS EPHEMERIDES TOOLS PHYSICAL DATA DISCOVERY FAQ SITE MAP
JPL Small-Body Database Browser
Search: [ help ]  
(2009 XO)
Classification: Apollo [NEO, PHA]          SPK-ID: 3482447
Ephemeris | Orbit Diagram | Orbital Elements | Physical Parameters | Close-Approach Data ]

[ hide orbit diagram ]
Orbit Diagram
Note: Make sure you have Java enabled on your browser to see the applet. This applet is provided as a 3D orbit visualization tool. The applet was implemented using 2-body methods, and hence should not be used for determining accurate long-term trajectories (over several years or decades) or planetary encounter circumstances. For accurate long-term ephemerides, please instead use our Horizons system.
Orbit Viewer

Additional Notes: the orbits shown in the applet are color coded. The planets are white lines, and the asteroid/comet is a blue line. The bright white line indicates the portion of the orbit that is above the ecliptic plane, and the darker portion is below the ecliptic plane. Likewise for the asteroid/comet orbit, the light blue indicates the portion above the ecliptic plane, and the dark blue the portion below the ecliptic plane.

Orbit Viewer applet originally written and kindly provided by Osamu Ajiki (AstroArts), and further modified by Ron Baalke (JPL).


Orbital Elements at Epoch 2456400.5 (2013-Apr-18.0) TDB
Reference: JPL 37 (heliocentric ecliptic J2000)
 Element Value Uncertainty (1-sigma)   Units 
e .5415137242529546 4.6837e-06  
a 1.854729470948726 1.7403e-05 AU
q .8503680076535693 7.5255e-07 AU
i .3542635875128484 3.3062e-06 deg
node 27.84914321625053 0.0014819 deg
peri 140.4912896859959 0.0014823 deg
M 90.89843045972461 0.0062901 deg
tp 2456167.544392084484
(2012-Aug-28.04439208)
0.012842 JED
period 922.612397435665
2.53
0.012986
3.555e-05
d
yr
n .390196360899327 5.4919e-06 deg/d
Q 2.859090934243883 2.6827e-05 AU
  Orbit Determination Parameters
   # obs. used (total)      228  
   data-arc span      151 days  
   first obs. used      2009-12-09  
   last obs. used      2010-05-09  
   planetary ephem.      DE405  
   SB-pert. ephem.      SB405-CPV-2  
   condition code      4  
   fit RMS      .40784  
   data source      ORB  
   producer      Otto Matic  
   solution date      2011-Sep-14 20:48:24  

Additional Information
 Earth MOID = .00183877 AU 
 T_jup = 3.809 
[ show covariance matrix ]

Ephemeris | Orbit Diagram | Orbital Elements | Physical Parameters | Close-Approach Data ]

Physical Parameter Table
Parameter Symbol Value Units Sigma Reference Notes
absolute magnitude H 20.532 mag .65665 37 autocmod 2.5a

[ show close-approach data ]
Ephemeris | Orbit Diagram | Orbital Elements | Physical Parameters | Close-Approach Data ]
ABOUT SSD CREDITS/AWARDS PRIVACY/COPYRIGHT GLOSSARY LINKS
FirstGov 2013-May-24 23:55 UT
(server date/time)  
NASA Home Page
Site Manager:   Donald K. Yeomans
Webmaster  Alan B. Chamberlin